GW6664 Weather Reports


time (UTC)temp
F
wind
direction
speed
knots
gust
knots
rain 1hr
in
rain 24hr
in
rain mn
in
humidity
%
barometer
mb
20260507104534 66 0 0.0 0.9 0.00 0.00 0.00 43 1012.9
20260507103033 67 97 0.0 0.0 0.00 0.00 0.00 41 1013.0
20260507101542 68 0 0.0 0.0 0.00 0.00 0.00 39 1013.0
20260507100036 70 0 0.0 0.9 0.00 0.00 0.00 38 1013.1
20260507094532 72 216 0.0 2.6 0.00 0.00 0.00 35 1013.1
20260507093041 74 237 2.6 4.3 0.00 0.00 0.00 31 1013.2
20260507091543 74 226 3.5 6.1 0.00 0.00 0.00 32 1013.3
20260507090040 73 221 2.6 6.1 0.00 0.00 0.00 32 1013.5
20260507084536 72 237 1.7 3.5 0.00 0.00 0.00 38 1013.8
20260507083035 70 248 0.9 1.7 0.00 0.00 0.00 41 1013.9
20260507081535 70 231 0.9 1.7 0.00 0.00 0.00 43 1013.9
20260507080043 70 231 0.0 1.7 0.00 0.00 0.00 40 1014.0
20260507074538 71 240 0.9 2.6 0.00 0.00 0.00 41 1014.0
20260507073036 70 0 0.0 0.0 0.00 0.00 0.00 42 1014.1
20260507071535 71 0 0.0 1.7 0.00 0.00 0.00 42 1014.2
20260507070035 72 0 0.0 2.6 0.00 0.00 0.00 40 1014.3
20260507064538 71 0 0.0 0.0 0.00 0.00 0.00 40 1014.2
20260507063037 74 0 0.0 2.6 0.00 0.00 0.00 37 1014.1
20260507061536 74 0 0.0 0.9 0.00 0.00 0.00 36 1014.1
20260507060035 76 0 0.0 10.4 0.00 0.00 0.00 34 1014.0
20260507054537 76 257 4.3 9.6 0.00 0.00 0.00 34 1014.0
20260507053038 76 264 5.2 10.4 0.00 0.00 0.00 34 1014.0
20260507051537 77 242 5.2 12.2 0.00 0.00 0.00 35 1014.0
20260507050038 77 207 7.0 11.3 0.00 0.00 0.00 36 1014.1
20260507044534 76 218 6.1 13.0 0.00 0.00 0.00 37 1014.1
20260507043039 76 285 5.2 13.9 0.00 0.00 0.00 38 1014.0
20260507041538 77 222 6.1 11.3 0.00 0.00 0.00 36 1014.0
20260507040042 77 240 6.1 10.4 0.00 0.00 0.00 36 1013.9
20260507034538 77 237 7.0 11.3 0.00 0.00 0.00 35 1013.7
20260507033035 78 220 6.1 11.3 0.00 0.00 0.00 36 1013.7
20260507031532 78 210 7.8 12.2 0.00 0.00 0.00 36 1013.6
20260507030032 78 240 7.0 12.2 0.00 0.00 0.00 36 1013.4
20260507024538 79 232 6.1 11.3 0.00 0.00 0.00 37 1013.2
20260507023045 79 232 8.7 13.0 0.00 0.00 0.00 37 1013.2
20260507021535 80 231 7.0 12.2 0.00 0.00 0.00 35 1013.0
20260507020041 82 209 4.3 8.7 0.00 0.00 0.00 33 1013.0
20260507014532 85 0 0.0 0.9 0.00 0.00 0.00 23 1012.9
20260507013049 88 0 0.0 1.7 0.00 0.00 0.00 18 1012.8
20260507011537 87 326 0.0 2.6 0.00 0.00 0.00 18 1012.8
20260507010037 89 0 0.0 1.7 0.00 0.00 0.00 17 1012.8
20260507004545 89 110 0.0 5.2 0.00 0.00 0.00 17 1012.8
20260507003042 89 0 0.0 1.7 0.00 0.00 0.00 17 1012.7
20260507001544 89 252 0.0 3.5 0.00 0.00 0.00 17 1012.8
20260507000038 89 6 0.0 5.2 0.00 0.00 0.00 17 1012.7
20260506234538 90 0 0.0 2.6 0.00 0.00 0.00 17 1012.7
20260506233053 88 196 0.0 5.2 0.00 0.00 0.00 18 1012.7
20260506231538 89 8 0.9 3.5 0.00 0.00 0.00 18 1012.8
20260506230047 90 0 0.9 3.5 0.00 0.00 0.00 17 1013.0
20260506224537 87 89 0.9 6.1 0.00 0.00 0.00 18 1013.1
20260506223042 88 357 0.0 7.0 0.00 0.00 0.00 17 1013.3
20260506221535 88 210 0.0 3.5 0.00 0.00 0.00 17 1013.4
20260506220035 88 0 0.9 5.2 0.00 0.00 0.00 18 1013.6
20260506214542 87 102 0.9 5.2 0.00 0.00 0.00 18 1013.9
20260506213049 88 22 0.9 6.1 0.00 0.00 0.00 17 1014.2
20260506211537 89 136 1.7 3.5 0.00 0.00 0.00 17 1014.3
20260506210037 87 81 1.7 5.2 0.00 0.00 0.00 18 1014.5
20260506204535 87 0 0.0 3.5 0.00 0.00 0.00 18 1014.5
20260506203035 85 30 0.9 4.3 0.00 0.00 0.00 19 1014.7
20260506201532 84 205 3.5 13.9 0.00 0.00 0.00 19 1015.0
20260506200038 85 108 0.0 4.3 0.00 0.00 0.00 19 1015.0
20260506194536 83 79 0.9 3.5 0.00 0.00 0.00 20 1015.2
20260506193037 84 44 0.0 2.6 0.00 0.00 0.00 19 1015.3
20260506191541 83 76 1.7 5.2 0.00 0.00 0.00 22 1015.5
20260506190038 81 115 0.0 3.5 0.00 0.00 0.00 24 1015.8
20260506184547 81 18 0.9 2.6 0.00 0.00 0.00 25 1015.9
20260506183050 80 36 0.9 3.5 0.00 0.00 0.00 26 1016.1
20260506181551 79 59 0.0 4.3 0.00 0.00 0.00 27 1016.1
20260506180035 79 82 0.9 1.7 0.00 0.00 0.00 27 1016.2
20260506174541 77 0 0.0 3.5 0.00 0.00 0.00 28 1016.2
20260506173054 76 101 0.9 4.3 0.00 0.00 0.00 29 1016.2
20260506171535 75 106 0.0 2.6 0.00 0.00 0.00 30 1016.3
20260506170039 75 99 0.0 1.7 0.00 0.00 0.00 30 1016.2
20260506164539 74 0 0.0 1.7 0.00 0.00 0.00 31 1016.1
20260506163040 71 0 0.0 1.7 0.00 0.00 0.00 34 1016.0
20260506161535 72 1 0.0 1.7 0.00 0.00 0.00 34 1015.9
20260506160036 70 0 0.0 1.7 0.00 0.00 0.00 37 1015.8
20260506154537 69 323 0.0 0.9 0.00 0.00 0.00 37 1015.8
20260506153055 68 0 0.0 0.9 0.00 0.00 0.00 38 1015.7
20260506151542 67 86 0.0 0.9 0.00 0.00 0.00 41 1015.8
20260506150037 66 0 0.0 0.9 0.00 0.00 0.00 41 1015.9
20260506144534 67 0 0.0 0.9 0.00 0.00 0.00 41 1015.8
20260506143034 66 0 0.0 0.0 0.00 0.00 0.00 41 1015.6
20260506141537 65 0 0.0 0.9 0.00 0.00 0.00 42 1015.5
20260506140038 63 0 0.0 0.0 0.00 0.00 0.00 46 1015.3
20260506134536 59 0 0.0 0.0 0.00 0.00 0.00 51 1015.3
20260506133035 59 0 0.0 0.9 0.00 0.00 0.00 50 1015.1
20260506131538 60 136 0.9 7.8 0.00 0.00 0.00 49 1014.8
20260506130038 59 0 3.5 10.4 0.00 0.00 0.00 49 1014.6
20260506124537 60 0 0.9 7.8 0.00 0.00 0.00 49 1014.5
20260506123037 58 0 1.7 7.8 0.00 0.00 0.00 52 1014.3
20260506121535 55 250 0.0 1.7 0.00 0.00 0.00 55 1014.4
20260506120039 58 0 0.0 0.0 0.00 0.00 0.00 52 1014.3
20260506114538 59 0 0.9 7.0 0.00 0.00 0.00 50 1014.2
20260506113042 59 0 0.0 8.7 0.00 0.00 0.00 50 1014.1
20260506111537 58 210 0.0 0.9 0.00 0.00 0.00 51 1014.1
20260506110036 60 0 0.9 9.6 0.00 0.00 0.00 48 1014.1